WUK7UP LYBE-EGGW

Flight info

Callsign WUK7UP
Flight time 2h 40m
Altitude 34000
Route TUVAR DCT OBUTI DCT GOLVA DCT SIMBA DCT EXITI DCT GASKA DCT MASEK DCT MAPOX DCT NOGRO M40 RINIS
Aircraft A321/M-SDE3FGHIRWY/LB1

Departure

Time 2026-04-29 12:46
Airport Belgrade Nikola Tesla Airport (LYBE)

Arrival

Time 2026-04-29 15:26
Airport London Luton Airport (EGGW)
Time Latitude Longitude Altitude Speed Heading
2026-04-29 12:27 44.81814 20.29167 323 ft 0 kts 301°
2026-04-29 12:34 44.81809 20.29179 321 ft 4 kts 301°
2026-04-29 12:35 44.81795 20.29211 321 ft 4 kts 313°
2026-04-29 12:35 44.81775 20.29230 319 ft 4 kts 356°
2026-04-29 12:35 44.81754 20.29224 318 ft 2 kts 31°
2026-04-29 12:35 44.81753 20.29223 318 ft 0 kts 32°
2026-04-29 12:38 44.81754 20.29224 318 ft 1 kts 32°
2026-04-29 12:39 44.81766 20.29235 320 ft 3 kts 32°
2026-04-29 12:39 44.81790 20.29256 321 ft 5 kts 32°
2026-04-29 12:39 44.81805 20.29300 321 ft 6 kts 94°
2026-04-29 12:39 44.81800 20.29365 321 ft 7 kts 80°
2026-04-29 12:40 44.81840 20.29417 321 ft 9 kts 32°
2026-04-29 12:40 44.81898 20.29468 321 ft 11 kts 32°
2026-04-29 12:40 44.81966 20.29528 321 ft 12 kts 32°
2026-04-29 12:40 44.82044 20.29598 321 ft 14 kts 32°
2026-04-29 12:41 44.82068 20.29678 320 ft 10 kts 116°
2026-04-29 12:41 44.82034 20.29764 321 ft 10 kts 121°
2026-04-29 12:41 44.81996 20.29855 321 ft 11 kts 120°
2026-04-29 12:41 44.81952 20.29959 321 ft 14 kts 122°
2026-04-29 12:42 44.81889 20.30098 321 ft 19 kts 122°
2026-04-29 12:42 44.81810 20.30274 321 ft 23 kts 122°
2026-04-29 12:42 44.81716 20.30487 321 ft 28 kts 121°
2026-04-29 12:42 44.81609 20.30734 319 ft 31 kts 121°
2026-04-29 12:43 44.81485 20.31008 321 ft 35 kts 122°
2026-04-29 12:43 44.81349 20.31312 321 ft 38 kts 122°
2026-04-29 12:43 44.81236 20.31567 321 ft 31 kts 122°
2026-04-29 12:43 44.81122 20.31829 321 ft 32 kts 122°
2026-04-29 12:44 44.81005 20.32093 321 ft 24 kts 121°
2026-04-29 12:44 44.81027 20.32262 321 ft 20 kts 34°
2026-04-29 12:44 44.81161 20.32315 321 ft 15 kts 14°
2026-04-29 12:44 44.81251 20.32258 322 ft 15 kts 309°
2026-04-29 12:45 44.81312 20.32126 321 ft 17 kts 302°
2026-04-29 12:45 44.81454 20.31800 323 ft 75 kts 302°
2026-04-29 12:45 44.81864 20.30884 323 ft 143 kts 302°
2026-04-29 12:45 44.82503 20.29492 448 ft 187 kts 302°
2026-04-29 12:46 44.83209 20.27934 1186 ft 191 kts 302°
2026-04-29 12:46 44.83982 20.26325 1749 ft 210 kts 305°
2026-04-29 12:46 44.84591 20.25149 2102 ft 227 kts 305°
2026-04-29 12:46 44.85574 20.23265 2421 ft 250 kts 306°
2026-04-29 12:47 44.86542 20.21155 2931 ft 261 kts 292°
2026-04-29 12:47 44.87157 20.18730 3616 ft 264 kts 288°
2026-04-29 12:47 44.87742 20.16268 4307 ft 266 kts 288°
2026-04-29 12:47 44.88327 20.13773 4993 ft 269 kts 288°
2026-04-29 12:48 44.88918 20.11253 5669 ft 272 kts 288°
2026-04-29 12:48 44.89516 20.08706 6347 ft 275 kts 288°
2026-04-29 12:48 44.90118 20.06136 6996 ft 278 kts 288°
2026-04-29 12:48 44.90727 20.03538 7653 ft 280 kts 288°
2026-04-29 12:49 44.91342 20.00914 8293 ft 283 kts 288°
2026-04-29 12:49 44.91964 19.98266 8927 ft 286 kts 288°
2026-04-29 12:49 44.92590 19.95592 9541 ft 288 kts 288°
2026-04-29 12:49 44.93220 19.92892 10143 ft 291 kts 288°
2026-04-29 12:50 44.93853 19.90161 10742 ft 294 kts 287°
2026-04-29 12:50 44.94489 19.87408 11330 ft 296 kts 288°
2026-04-29 12:50 44.95133 19.84632 11927 ft 299 kts 288°
2026-04-29 12:50 44.95781 19.81831 12500 ft 302 kts 288°
2026-04-29 12:51 44.96436 19.78998 13067 ft 304 kts 288°
2026-04-29 12:51 44.97094 19.76144 13622 ft 307 kts 287°
2026-04-29 12:51 44.97760 19.73267 14169 ft 310 kts 288°
2026-04-29 12:51 44.98432 19.70360 14710 ft 312 kts 288°
2026-04-29 12:52 44.99108 19.67436 15242 ft 315 kts 288°
2026-04-29 12:52 44.99789 19.64484 15766 ft 317 kts 287°
2026-04-29 12:52 45.00473 19.61509 16275 ft 320 kts 287°
2026-04-29 12:52 45.01161 19.58512 16765 ft 322 kts 288°
2026-04-29 12:53 45.01855 19.55484 17250 ft 325 kts 287°
2026-04-29 12:53 45.02551 19.52437 17722 ft 327 kts 287°
2026-04-29 12:53 45.03252 19.49366 18180 ft 330 kts 287°
2026-04-29 12:53 45.03957 19.46270 18639 ft 332 kts 287°
2026-04-29 12:54 45.04667 19.43153 19075 ft 334 kts 287°
2026-04-29 12:54 45.05379 19.40012 19519 ft 337 kts 287°
2026-04-29 12:54 45.06096 19.36851 19947 ft 339 kts 287°
2026-04-29 12:54 45.06828 19.33624 20365 ft 341 kts 287°
2026-04-29 12:55 45.07555 19.30419 20781 ft 343 kts 287°
2026-04-29 12:55 45.08286 19.27195 21178 ft 345 kts 287°
2026-04-29 12:55 45.09022 19.23946 21568 ft 348 kts 287°
2026-04-29 12:55 45.09761 19.20680 21954 ft 350 kts 287°
2026-04-29 12:56 45.10504 19.17388 22345 ft 352 kts 287°
2026-04-29 12:56 45.11249 19.14082 22712 ft 354 kts 287°
2026-04-29 12:56 45.11996 19.10751 23082 ft 356 kts 287°
2026-04-29 12:56 45.12881 19.07477 23436 ft 358 kts 297°
2026-04-29 12:57 45.14193 19.04425 23588 ft 367 kts 303°
2026-04-29 12:57 45.15625 19.01374 23724 ft 376 kts 303°
2026-04-29 12:57 45.17096 18.98251 23848 ft 386 kts 303°
2026-04-29 12:57 45.18605 18.95047 23976 ft 395 kts 303°
2026-04-29 12:58 45.20143 18.91770 24103 ft 404 kts 303°
2026-04-29 12:58 45.21714 18.88412 24232 ft 413 kts 303°
2026-04-29 12:58 45.23313 18.84980 24358 ft 421 kts 303°
2026-04-29 12:58 45.24937 18.81485 24483 ft 428 kts 303°
2026-04-29 12:59 45.26586 18.77926 24654 ft 434 kts 303°
2026-04-29 12:59 45.28251 18.74328 24926 ft 437 kts 303°
2026-04-29 12:59 45.29925 18.70712 25227 ft 440 kts 303°
2026-04-29 12:59 45.31610 18.67075 25527 ft 442 kts 303°
2026-04-29 13:00 45.33300 18.63419 25838 ft 444 kts 303°
2026-04-29 13:00 45.34998 18.59740 26123 ft 446 kts 303°
2026-04-29 13:00 45.36701 18.56045 26405 ft 448 kts 303°
2026-04-29 13:00 45.38411 18.52333 26687 ft 450 kts 303°
2026-04-29 13:01 45.40128 18.48601 26966 ft 452 kts 303°
2026-04-29 13:01 45.41851 18.44848 27240 ft 453 kts 303°
2026-04-29 13:01 45.43575 18.41083 27494 ft 455 kts 303°
2026-04-29 13:01 45.45304 18.37298 27747 ft 457 kts 303°
2026-04-29 13:02 45.47044 18.33496 27989 ft 459 kts 303°
2026-04-29 13:02 45.48730 18.29824 29832 ft 425 kts 301°
2026-04-29 13:02 45.50302 18.26416 31260 ft 399 kts 301°
2026-04-29 13:02 45.51788 18.23212 32511 ft 376 kts 301°
2026-04-29 13:03 45.53191 18.20198 33689 ft 354 kts 301°
2026-04-29 13:03 45.54517 18.17366 34720 ft 333 kts 301°
2026-04-29 13:03 45.55767 18.14711 35568 ft 312 kts 301°
2026-04-29 13:03 45.56942 18.12229 36291 ft 292 kts 302°
2026-04-29 13:04 45.58064 18.09869 36562 ft 287 kts 302°
2026-04-29 13:04 45.59209 18.07455 36110 ft 302 kts 301°
2026-04-29 13:04 45.60418 18.04894 35629 ft 318 kts 301°
2026-04-29 13:04 45.61650 18.02279 35816 ft 313 kts 301°
2026-04-29 13:05 45.62835 17.99772 36387 ft 297 kts 301°
2026-04-29 13:05 45.63976 17.97366 36615 ft 292 kts 302°
2026-04-29 13:05 45.65137 17.94913 36245 ft 305 kts 301°
2026-04-29 13:05 45.66368 17.92301 35852 ft 318 kts 301°
2026-04-29 13:06 45.67583 17.89720 36019 ft 313 kts 301°
2026-04-29 13:06 45.68790 17.87163 36517 ft 300 kts 301°
2026-04-29 13:06 45.69947 17.84719 36679 ft 297 kts 302°
2026-04-29 13:06 45.71120 17.82236 36380 ft 307 kts 301°
2026-04-29 13:07 45.72338 17.79649 36082 ft 318 kts 301°
2026-04-29 13:07 45.73569 17.77032 36216 ft 314 kts 301°
2026-04-29 13:07 45.74766 17.74493 36616 ft 303 kts 302°
2026-04-29 13:07 45.75939 17.72010 36755 ft 301 kts 302°
2026-04-29 13:08 45.77124 17.69498 36506 ft 309 kts 302°
2026-04-29 13:08 45.78344 17.66904 36266 ft 318 kts 302°
2026-04-29 13:08 45.79577 17.64282 36384 ft 314 kts 302°
2026-04-29 13:08 45.80782 17.61722 36711 ft 306 kts 302°
2026-04-29 13:09 45.81966 17.59210 36835 ft 304 kts 302°
2026-04-29 13:09 45.83161 17.56675 36639 ft 311 kts 302°
2026-04-29 13:09 45.84384 17.54071 36454 ft 317 kts 302°
2026-04-29 13:10 45.86829 17.48870 36806 ft 309 kts 302°
2026-04-29 13:10 45.88025 17.46329 36911 ft 307 kts 302°
2026-04-29 13:10 45.89227 17.43773 36762 ft 312 kts 302°
2026-04-29 13:10 45.90453 17.41164 36619 ft 317 kts 302°
2026-04-29 13:11 45.91685 17.38538 36685 ft 316 kts 302°
2026-04-29 13:11 45.92902 17.35947 36913 ft 310 kts 302°
2026-04-29 13:11 45.94105 17.33388 37004 ft 309 kts 302°
2026-04-29 13:11 45.95316 17.30812 36893 ft 313 kts 302°
2026-04-29 13:12 45.96544 17.28194 36769 ft 318 kts 302°
2026-04-29 13:12 45.99001 17.22957 37010 ft 312 kts 302°
2026-04-29 13:13 46.01429 17.17784 37015 ft 314 kts 302°
2026-04-29 13:13 46.02659 17.15159 36904 ft 318 kts 302°
2026-04-29 13:13 46.03896 17.12518 36945 ft 317 kts 302°
2026-04-29 13:13 46.05123 17.09901 37093 ft 314 kts 302°
2026-04-29 13:14 46.06341 17.07302 37186 ft 313 kts 302°
2026-04-29 13:14 46.08797 17.02060 37035 ft 319 kts 302°
2026-04-29 13:15 46.11268 16.96781 37208 ft 315 kts 302°
2026-04-29 13:15 46.13719 16.91546 37206 ft 317 kts 302°
2026-04-29 13:16 46.16198 16.86246 37192 ft 319 kts 302°
2026-04-29 13:16 46.17434 16.83603 37296 ft 317 kts 302°
2026-04-29 13:16 46.18662 16.80978 37350 ft 316 kts 302°
2026-04-29 13:17 46.21134 16.75690 37258 ft 320 kts 302°
2026-04-29 13:17 46.23619 16.70373 37370 ft 318 kts 302°
2026-04-29 13:18 46.26093 16.65078 37397 ft 319 kts 302°
2026-04-29 13:18 46.28582 16.59747 37370 ft 320 kts 302°
2026-04-29 13:19 46.31067 16.54425 37474 ft 319 kts 302°
2026-04-29 13:19 46.33553 16.49098 37451 ft 321 kts 302°
2026-04-29 13:20 46.36050 16.43746 37487 ft 320 kts 302°
2026-04-29 13:20 46.38541 16.38406 37539 ft 320 kts 302°
2026-04-29 13:21 46.41041 16.33044 37536 ft 322 kts 302°
2026-04-29 13:21 46.43542 16.27675 37613 ft 321 kts 302°
2026-04-29 13:22 46.45636 16.23183 37607 ft 322 kts 302°
2026-04-29 13:22 46.48142 16.17800 37607 ft 322 kts 302°
2026-04-29 13:23 46.50648 16.12418 37661 ft 321 kts 302°
2026-04-29 13:23 46.53159 16.07025 37651 ft 323 kts 302°
2026-04-29 13:24 46.55672 16.01624 37692 ft 323 kts 302°
2026-04-29 13:24 46.58187 15.96217 37708 ft 324 kts 302°
2026-04-29 13:25 46.60711 15.90787 37741 ft 324 kts 302°
2026-04-29 13:25 46.64497 15.82641 37758 ft 325 kts 302°
2026-04-29 13:26 46.67029 15.77189 37786 ft 325 kts 302°
2026-04-29 13:26 46.69558 15.71743 37802 ft 325 kts 302°
2026-04-29 13:27 46.72093 15.66281 37792 ft 325 kts 302°
2026-04-29 13:27 46.74628 15.60818 37814 ft 325 kts 302°
2026-04-29 13:28 46.77163 15.55352 37816 ft 326 kts 302°
2026-04-29 13:28 46.79702 15.49878 37821 ft 326 kts 302°
2026-04-29 13:29 46.82247 15.44388 37827 ft 326 kts 302°
2026-04-29 13:29 46.84792 15.38898 37869 ft 326 kts 302°
2026-04-29 13:30 46.87337 15.33405 37862 ft 327 kts 302°
2026-04-29 13:30 46.89889 15.27895 37866 ft 328 kts 302°
2026-04-29 13:31 46.92446 15.22372 37865 ft 329 kts 302°
2026-04-29 13:31 46.93781 15.19553 37163 ft 350 kts 303°
2026-04-29 13:31 46.95252 15.16573 36483 ft 370 kts 304°
2026-04-29 13:32 46.96974 15.13686 35671 ft 384 kts 314°
2026-04-29 13:32 46.98975 15.11089 35110 ft 385 kts 314°
2026-04-29 13:32 47.00970 15.08495 34679 ft 382 kts 314°
2026-04-29 13:32 47.02946 15.05921 34313 ft 377 kts 313°
2026-04-29 13:33 47.04900 15.03358 34198 ft 379 kts 313°
2026-04-29 13:33 47.06875 15.00753 34227 ft 385 kts 313°
2026-04-29 13:33 47.10903 14.95439 34220 ft 392 kts 314°
2026-04-29 13:34 47.14973 14.90088 34216 ft 393 kts 314°
2026-04-29 13:34 47.19048 14.84722 34222 ft 393 kts 314°
2026-04-29 13:35 47.23115 14.79338 34223 ft 393 kts 314°
2026-04-29 13:35 47.27187 14.73945 34225 ft 394 kts 314°
2026-04-29 13:36 47.31269 14.68529 34231 ft 395 kts 314°
2026-04-29 13:36 47.35357 14.63096 34222 ft 396 kts 314°
2026-04-29 13:37 47.39444 14.57649 34221 ft 396 kts 314°
2026-04-29 13:37 47.43533 14.52190 34223 ft 397 kts 314°
2026-04-29 13:38 47.47619 14.46707 34215 ft 397 kts 314°
2026-04-29 13:38 47.51711 14.41210 34218 ft 397 kts 314°
2026-04-29 13:39 47.55796 14.35712 34217 ft 397 kts 314°
2026-04-29 13:39 47.59890 14.30193 34210 ft 398 kts 314°
2026-04-29 13:40 47.63981 14.24663 34206 ft 398 kts 314°
2026-04-29 13:40 47.68082 14.19119 34217 ft 400 kts 314°
2026-04-29 13:41 47.72190 14.13555 34216 ft 400 kts 314°
2026-04-29 13:41 47.76295 14.07962 34215 ft 401 kts 314°
2026-04-29 13:42 47.80405 14.02361 34209 ft 401 kts 314°
2026-04-29 13:42 47.84520 13.96739 34218 ft 402 kts 314°
2026-04-29 13:43 47.88642 13.91090 34221 ft 403 kts 314°
2026-04-29 13:43 47.92761 13.85438 34224 ft 403 kts 314°
2026-04-29 13:44 47.96892 13.79753 34221 ft 404 kts 314°
2026-04-29 13:44 48.01018 13.74062 34227 ft 404 kts 314°
2026-04-29 13:45 48.05145 13.68341 34228 ft 405 kts 314°
2026-04-29 13:45 48.09222 13.62506 34226 ft 406 kts 313°
2026-04-29 13:46 48.13267 13.56622 34234 ft 406 kts 313°
2026-04-29 13:46 48.17327 13.50733 34234 ft 406 kts 313°
2026-04-29 13:47 48.21390 13.44845 34231 ft 407 kts 313°
2026-04-29 13:47 48.25464 13.38943 34232 ft 407 kts 313°
2026-04-29 13:48 48.29540 13.33028 34232 ft 408 kts 313°
2026-04-29 13:48 48.33600 13.27087 34235 ft 408 kts 313°
2026-04-29 13:49 48.37673 13.21131 34233 ft 408 kts 313°
2026-04-29 13:49 48.41747 13.15162 34229 ft 409 kts 313°
2026-04-29 13:50 48.45824 13.09171 34235 ft 410 kts 313°
2026-04-29 13:50 48.49911 13.03147 34234 ft 411 kts 313°
2026-04-29 13:51 48.54006 12.97116 34233 ft 412 kts 314°
2026-04-29 13:51 48.58100 12.91067 34235 ft 412 kts 313°
2026-04-29 13:52 48.62189 12.84993 34235 ft 412 kts 314°
2026-04-29 13:52 48.66277 12.78903 34233 ft 413 kts 314°
2026-04-29 13:53 48.70380 12.72784 34237 ft 414 kts 314°
2026-04-29 13:53 48.74491 12.66644 34242 ft 416 kts 314°
2026-04-29 13:54 48.78611 12.60477 34233 ft 417 kts 314°
2026-04-29 13:54 48.82742 12.54293 34234 ft 418 kts 314°
2026-04-29 13:55 48.86868 12.48072 34233 ft 418 kts 314°
2026-04-29 13:55 48.91001 12.41831 34234 ft 419 kts 314°
2026-04-29 13:56 48.95141 12.35570 34241 ft 420 kts 314°
2026-04-29 13:56 48.99289 12.29285 34247 ft 421 kts 314°
2026-04-29 13:57 49.03443 12.22969 34249 ft 422 kts 315°
2026-04-29 13:57 49.06927 12.17662 34255 ft 423 kts 315°
2026-04-29 13:58 49.11799 12.10220 34262 ft 425 kts 315°
2026-04-29 13:58 49.15277 12.04890 34264 ft 426 kts 315°
2026-04-29 13:59 49.20138 11.97428 34267 ft 427 kts 315°
2026-04-29 13:59 49.24334 11.90982 34268 ft 428 kts 315°
2026-04-29 14:00 49.27850 11.85553 34264 ft 429 kts 315°
2026-04-29 14:00 49.32047 11.79058 34266 ft 429 kts 315°
2026-04-29 14:01 49.36252 11.72548 34267 ft 430 kts 315°
2026-04-29 14:01 49.40457 11.66008 34267 ft 430 kts 315°
2026-04-29 14:02 49.44661 11.59449 34267 ft 431 kts 316°
2026-04-29 14:02 49.48881 11.52868 34272 ft 432 kts 316°
2026-04-29 14:03 49.53092 11.46262 34273 ft 433 kts 316°
2026-04-29 14:03 49.57311 11.39637 34263 ft 433 kts 316°
2026-04-29 14:04 49.61529 11.32981 34258 ft 434 kts 316°
2026-04-29 14:04 49.65752 11.26306 34257 ft 435 kts 316°
2026-04-29 14:05 49.69984 11.19611 34263 ft 436 kts 316°
2026-04-29 14:05 49.74218 11.12907 34269 ft 436 kts 317°
2026-04-29 14:06 49.78456 11.06169 34273 ft 437 kts 317°
2026-04-29 14:06 49.82693 10.99407 34275 ft 438 kts 317°
2026-04-29 14:07 49.86927 10.92628 34282 ft 438 kts 317°
2026-04-29 14:07 49.91170 10.85814 34290 ft 439 kts 317°
2026-04-29 14:08 49.95415 10.78989 34295 ft 440 kts 317°
2026-04-29 14:08 49.99656 10.72145 34297 ft 440 kts 317°
2026-04-29 14:09 50.03891 10.65275 34301 ft 440 kts 318°
2026-04-29 14:09 50.08127 10.58406 34297 ft 440 kts 318°
2026-04-29 14:10 50.12364 10.51522 34302 ft 440 kts 318°
2026-04-29 14:10 50.16599 10.44624 34304 ft 440 kts 318°
2026-04-29 14:11 50.20828 10.37708 34301 ft 440 kts 319°
2026-04-29 14:11 50.25053 10.30778 34304 ft 440 kts 319°
2026-04-29 14:12 50.29278 10.23832 34309 ft 441 kts 319°
2026-04-29 14:12 50.33499 10.16864 34318 ft 441 kts 319°
2026-04-29 14:13 50.37722 10.09883 34318 ft 441 kts 319°
2026-04-29 14:13 50.41943 10.02884 34313 ft 441 kts 319°
2026-04-29 14:14 50.46159 9.95878 34316 ft 442 kts 319°
2026-04-29 14:14 50.50373 9.88852 34325 ft 442 kts 319°
2026-04-29 14:15 50.54590 9.81804 34327 ft 443 kts 319°
2026-04-29 14:15 50.58804 9.74735 34331 ft 443 kts 319°
2026-04-29 14:16 50.63023 9.67634 34331 ft 444 kts 319°
2026-04-29 14:16 50.67229 9.60535 34335 ft 444 kts 319°
2026-04-29 14:17 50.71442 9.53412 34331 ft 444 kts 320°
2026-04-29 14:17 50.75658 9.46278 34332 ft 444 kts 319°
2026-04-29 14:18 50.79869 9.39120 34337 ft 445 kts 319°
2026-04-29 14:18 50.84076 9.31946 34335 ft 445 kts 319°
2026-04-29 14:19 50.88281 9.24756 34343 ft 445 kts 319°
2026-04-29 14:19 50.92485 9.17533 34346 ft 446 kts 319°
2026-04-29 14:20 50.96690 9.10300 34347 ft 446 kts 319°
2026-04-29 14:20 51.00896 9.03057 34343 ft 447 kts 319°
2026-04-29 14:21 51.05101 8.95775 34343 ft 447 kts 319°
2026-04-29 14:21 51.09296 8.88479 34339 ft 447 kts 319°
2026-04-29 14:22 51.13066 8.80492 34335 ft 460 kts 303°
2026-04-29 14:22 51.15215 8.70751 34324 ft 471 kts 291°
2026-04-29 14:23 51.16953 8.60677 34322 ft 472 kts 291°
2026-04-29 14:23 51.18700 8.50594 34320 ft 472 kts 291°
2026-04-29 14:24 51.20438 8.40490 34319 ft 473 kts 291°
2026-04-29 14:24 51.22162 8.30350 34327 ft 474 kts 290°
2026-04-29 14:25 51.23864 8.20194 34320 ft 474 kts 290°
2026-04-29 14:25 51.25563 8.10031 34319 ft 474 kts 290°
2026-04-29 14:26 51.27269 7.99851 34321 ft 475 kts 290°
2026-04-29 14:26 51.28963 7.89664 34320 ft 475 kts 290°
2026-04-29 14:27 51.30647 7.79451 34317 ft 475 kts 290°
2026-04-29 14:28 51.33165 7.64105 34320 ft 476 kts 290°
2026-04-29 14:28 51.34835 7.53861 34321 ft 476 kts 290°
2026-04-29 14:29 51.36496 7.43593 34319 ft 477 kts 289°
2026-04-29 14:29 51.38142 7.33305 34315 ft 477 kts 289°
2026-04-29 14:30 51.39783 7.22996 34321 ft 478 kts 289°
2026-04-29 14:30 51.41420 7.12681 34313 ft 478 kts 289°
2026-04-29 14:31 51.43048 7.02346 34311 ft 478 kts 289°
2026-04-29 14:31 51.44666 6.91998 34307 ft 479 kts 289°
2026-04-29 14:32 51.46280 6.81632 34308 ft 479 kts 289°
2026-04-29 14:32 51.47897 6.71193 34312 ft 479 kts 288°
2026-04-29 14:33 51.49493 6.60803 34319 ft 480 kts 288°
2026-04-29 14:33 51.51086 6.50403 34330 ft 480 kts 288°
2026-04-29 14:34 51.52663 6.39998 34327 ft 480 kts 288°
2026-04-29 14:34 51.54231 6.29566 34328 ft 480 kts 288°
2026-04-29 14:35 51.55795 6.19136 34325 ft 480 kts 288°
2026-04-29 14:35 51.57089 6.10445 34329 ft 481 kts 287°
2026-04-29 14:36 51.58634 5.99991 34328 ft 481 kts 287°
2026-04-29 14:36 51.60167 5.89523 34323 ft 481 kts 287°
2026-04-29 14:37 51.61698 5.79039 34328 ft 481 kts 287°
2026-04-29 14:37 51.63217 5.68553 34334 ft 481 kts 287°
2026-04-29 14:38 51.64726 5.58051 34336 ft 481 kts 287°
2026-04-29 14:38 51.66226 5.47549 34331 ft 482 kts 286°
2026-04-29 14:39 51.67724 5.37025 34328 ft 482 kts 286°
2026-04-29 14:39 51.69212 5.26502 34311 ft 482 kts 286°
2026-04-29 14:40 51.70684 5.15977 34306 ft 482 kts 285°
2026-04-29 14:40 51.72146 5.05430 34305 ft 482 kts 285°
2026-04-29 14:41 51.73595 4.94879 34310 ft 482 kts 285°
2026-04-29 14:41 51.75042 4.84329 34308 ft 482 kts 285°
2026-04-29 14:42 51.76483 4.73773 34312 ft 482 kts 285°
2026-04-29 14:42 51.77911 4.63211 34328 ft 482 kts 284°
2026-04-29 14:43 51.79326 4.52633 34333 ft 481 kts 284°
2026-04-29 14:43 51.80728 4.42056 34330 ft 481 kts 284°
2026-04-29 14:44 51.82127 4.31482 34331 ft 481 kts 284°
2026-04-29 14:44 51.83518 4.20901 34324 ft 481 kts 284°
2026-04-29 14:45 51.84898 4.10324 34327 ft 481 kts 284°
2026-04-29 14:45 51.86263 3.99729 34324 ft 481 kts 283°
2026-04-29 14:46 51.87612 3.89119 34319 ft 481 kts 283°
2026-04-29 14:46 51.88956 3.78525 34320 ft 481 kts 283°
2026-04-29 14:47 51.90300 3.67908 34320 ft 481 kts 283°
2026-04-29 14:47 51.91633 3.57287 34333 ft 481 kts 283°
2026-04-29 14:48 51.92949 3.46667 34337 ft 481 kts 282°
2026-04-29 14:48 51.94262 3.36040 34343 ft 481 kts 282°
2026-04-29 14:49 51.95560 3.25401 34347 ft 481 kts 282°
2026-04-29 14:49 51.96185 3.20072 33869 ft 485 kts 279°
2026-04-29 14:49 51.96365 3.14564 32926 ft 491 kts 266°
2026-04-29 14:49 51.96034 3.09063 32328 ft 488 kts 263°
2026-04-29 14:50 51.95667 3.03621 31800 ft 485 kts 263°
2026-04-29 14:50 51.95313 2.98203 31304 ft 481 kts 263°
2026-04-29 14:50 51.94966 2.92837 30811 ft 478 kts 263°
2026-04-29 14:50 51.94622 2.87499 30302 ft 474 kts 263°
2026-04-29 14:51 51.94279 2.82220 29732 ft 470 kts 263°
2026-04-29 14:51 51.93955 2.76983 29430 ft 460 kts 264°
2026-04-29 14:51 51.93695 2.71876 29280 ft 448 kts 265°
2026-04-29 14:51 51.93480 2.66897 29011 ft 439 kts 265°
2026-04-29 14:52 51.93283 2.61959 28159 ft 444 kts 265°
2026-04-29 14:52 51.93083 2.56929 27446 ft 446 kts 265°
2026-04-29 14:52 51.92875 2.51990 27310 ft 433 kts 265°
2026-04-29 14:52 51.92662 2.47174 27069 ft 425 kts 265°
2026-04-29 14:53 51.92442 2.42428 26707 ft 421 kts 265°
2026-04-29 14:53 51.92216 2.37720 26321 ft 417 kts 264°
2026-04-29 14:53 51.91989 2.33056 25928 ft 415 kts 264°
2026-04-29 14:53 51.91762 2.28401 25538 ft 412 kts 264°
2026-04-29 14:54 51.91536 2.23782 25140 ft 410 kts 264°
2026-04-29 14:54 51.91313 2.19196 24754 ft 407 kts 264°
2026-04-29 14:54 51.91091 2.14633 24366 ft 405 kts 264°
2026-04-29 14:54 51.90870 2.10099 23977 ft 403 kts 264°
2026-04-29 14:55 51.90644 2.05588 23535 ft 400 kts 264°
2026-04-29 14:55 51.90416 2.01112 23075 ft 398 kts 264°
2026-04-29 14:55 51.90189 1.96663 22623 ft 396 kts 265°
2026-04-29 14:55 51.90241 1.92231 22179 ft 393 kts 278°
2026-04-29 14:56 51.90910 1.87986 21728 ft 389 kts 293°
2026-04-29 14:56 51.92153 1.84131 21275 ft 383 kts 307°
2026-04-29 14:56 51.93809 1.80780 20833 ft 380 kts 313°
2026-04-29 14:56 51.95506 1.77516 20397 ft 378 kts 313°
2026-04-29 14:57 51.97189 1.74265 19983 ft 375 kts 312°
2026-04-29 14:57 51.98861 1.71025 19580 ft 373 kts 312°
2026-04-29 14:57 52.00516 1.67806 19181 ft 370 kts 312°
2026-04-29 14:57 52.02162 1.64607 18786 ft 368 kts 313°
2026-04-29 14:58 52.03795 1.61432 18354 ft 365 kts 313°
2026-04-29 14:58 52.05419 1.58268 17889 ft 363 kts 313°
2026-04-29 14:58 52.07032 1.55122 17432 ft 361 kts 312°
2026-04-29 14:58 52.08634 1.51990 16990 ft 360 kts 313°
2026-04-29 14:59 52.10229 1.48866 16563 ft 358 kts 312°
2026-04-29 14:59 52.11813 1.45759 16142 ft 356 kts 312°
2026-04-29 14:59 52.13388 1.42659 15702 ft 355 kts 313°
2026-04-29 14:59 52.14898 1.39493 15297 ft 355 kts 305°
2026-04-29 15:00 52.16017 1.35911 14901 ft 356 kts 291°
2026-04-29 15:00 52.16642 1.32026 14501 ft 355 kts 278°
2026-04-29 15:00 52.16966 1.28041 14090 ft 354 kts 278°
2026-04-29 15:00 52.17335 1.24069 13656 ft 353 kts 279°
2026-04-29 15:01 52.17725 1.20139 13236 ft 351 kts 279°
2026-04-29 15:01 52.18116 1.16228 12831 ft 349 kts 279°
2026-04-29 15:01 52.18502 1.12341 12439 ft 347 kts 279°
2026-04-29 15:01 52.18877 1.08467 12026 ft 345 kts 279°
2026-04-29 15:02 52.19241 1.04612 11656 ft 343 kts 279°
2026-04-29 15:02 52.19596 1.00780 11285 ft 341 kts 278°
2026-04-29 15:02 52.19946 0.96970 10919 ft 339 kts 278°
2026-04-29 15:02 52.20293 0.93186 10547 ft 337 kts 278°
2026-04-29 15:03 52.20639 0.89408 10181 ft 335 kts 278°
2026-04-29 15:03 52.20981 0.85684 10017 ft 326 kts 278°
2026-04-29 15:03 52.21310 0.82090 10041 ft 318 kts 278°
2026-04-29 15:03 52.21630 0.78540 10040 ft 317 kts 278°
2026-04-29 15:04 52.21950 0.74973 10042 ft 317 kts 277°
2026-04-29 15:04 52.22269 0.71418 10043 ft 317 kts 277°
2026-04-29 15:04 52.22588 0.67853 10054 ft 317 kts 277°
2026-04-29 15:04 52.22906 0.64294 10066 ft 317 kts 277°
2026-04-29 15:05 52.23224 0.60736 10064 ft 317 kts 277°
2026-04-29 15:05 52.23538 0.57186 10066 ft 316 kts 277°
2026-04-29 15:05 52.23851 0.53629 10073 ft 317 kts 277°
2026-04-29 15:05 52.24165 0.50074 10068 ft 317 kts 277°
2026-04-29 15:06 52.24479 0.46519 10058 ft 316 kts 277°
2026-04-29 15:06 52.24788 0.42967 10065 ft 316 kts 277°
2026-04-29 15:06 52.25096 0.39420 10065 ft 316 kts 277°
2026-04-29 15:06 52.25402 0.35874 10036 ft 316 kts 277°
2026-04-29 15:07 52.25708 0.32323 10039 ft 315 kts 276°
2026-04-29 15:07 52.26012 0.28778 10037 ft 315 kts 276°
2026-04-29 15:07 52.26318 0.25232 10039 ft 316 kts 277°
2026-04-29 15:07 52.26624 0.21686 10032 ft 316 kts 276°
2026-04-29 15:08 52.26927 0.18149 9785 ft 313 kts 276°
2026-04-29 15:08 52.27226 0.14629 9429 ft 312 kts 276°
2026-04-29 15:08 52.27522 0.11124 9072 ft 310 kts 276°
2026-04-29 15:08 52.27817 0.07642 8709 ft 309 kts 276°
2026-04-29 15:09 52.28110 0.04172 8353 ft 308 kts 276°
2026-04-29 15:09 52.28400 0.00718 8063 ft 305 kts 276°
2026-04-29 15:09 52.28688 -0.02722 8035 ft 307 kts 276°
2026-04-29 15:09 52.28975 -0.06181 8039 ft 308 kts 276°
2026-04-29 15:10 52.29238 -0.09654 8032 ft 307 kts 271°
2026-04-29 15:10 52.28957 -0.13062 8040 ft 303 kts 250°
2026-04-29 15:10 52.28280 -0.16318 8030 ft 303 kts 246°
2026-04-29 15:10 52.27558 -0.19537 8033 ft 302 kts 246°
2026-04-29 15:11 52.26822 -0.22763 8033 ft 303 kts 246°
2026-04-29 15:11 52.26090 -0.25988 8028 ft 303 kts 246°
2026-04-29 15:11 52.25357 -0.29218 8013 ft 303 kts 246°
2026-04-29 15:11 52.24620 -0.32435 8021 ft 303 kts 246°
2026-04-29 15:12 52.23885 -0.35657 8013 ft 303 kts 246°
2026-04-29 15:12 52.23397 -0.37791 8015 ft 303 kts 246°
2026-04-29 15:12 52.22414 -0.42101 8017 ft 303 kts 246°
2026-04-29 15:12 52.21677 -0.45321 8007 ft 303 kts 246°
2026-04-29 15:13 52.20941 -0.48541 7983 ft 302 kts 245°
2026-04-29 15:13 52.19982 -0.51538 7656 ft 296 kts 233°
2026-04-29 15:13 52.18840 -0.54326 7316 ft 295 kts 231°
2026-04-29 15:13 52.17676 -0.57082 6996 ft 295 kts 231°
2026-04-29 15:14 52.16508 -0.59831 6701 ft 295 kts 231°
2026-04-29 15:14 52.15738 -0.61642 6492 ft 294 kts 231°
2026-04-29 15:14 52.14578 -0.64383 6171 ft 294 kts 231°
2026-04-29 15:14 52.13428 -0.67119 5843 ft 292 kts 231°
2026-04-29 15:15 52.12283 -0.69852 5524 ft 292 kts 231°
2026-04-29 15:15 52.11144 -0.72575 5247 ft 291 kts 231°
2026-04-29 15:15 52.10010 -0.75291 4970 ft 290 kts 231°
2026-04-29 15:15 52.08882 -0.77998 4676 ft 289 kts 231°
2026-04-29 15:16 52.07744 -0.80695 4359 ft 289 kts 231°
2026-04-29 15:16 52.06608 -0.83374 4078 ft 286 kts 231°
2026-04-29 15:16 52.05458 -0.85953 3990 ft 274 kts 225°
2026-04-29 15:16 52.04186 -0.88115 3994 ft 255 kts 212°
2026-04-29 15:17 52.02716 -0.89441 4019 ft 229 kts 189°
2026-04-29 15:17 52.01253 -0.89793 4032 ft 200 kts 169°
2026-04-29 15:17 51.99938 -0.89384 4010 ft 188 kts 152°
2026-04-29 15:17 51.98821 -0.88393 4001 ft 180 kts 136°
2026-04-29 15:18 51.97956 -0.86972 4000 ft 175 kts 121°
2026-04-29 15:18 51.97309 -0.85306 4002 ft 174 kts 117°
2026-04-29 15:18 51.96671 -0.83633 4016 ft 175 kts 117°
2026-04-29 15:18 51.96033 -0.81970 4005 ft 173 kts 117°
2026-04-29 15:19 51.95399 -0.80316 4008 ft 172 kts 117°
2026-04-29 15:19 51.94766 -0.78666 4012 ft 172 kts 117°
2026-04-29 15:19 51.94135 -0.77023 4004 ft 173 kts 117°
2026-04-29 15:19 51.93498 -0.75367 4009 ft 173 kts 117°
2026-04-29 15:20 51.92862 -0.73709 4001 ft 173 kts 117°
2026-04-29 15:20 51.92227 -0.72051 4004 ft 173 kts 116°
2026-04-29 15:20 51.91590 -0.70390 4001 ft 173 kts 117°
2026-04-29 15:20 51.90952 -0.68736 4004 ft 173 kts 117°
2026-04-29 15:21 51.90312 -0.67077 3807 ft 173 kts 117°
2026-04-29 15:21 51.89676 -0.65427 3570 ft 172 kts 116°
2026-04-29 15:21 51.89042 -0.63782 3367 ft 174 kts 116°
2026-04-29 15:21 51.88348 -0.62171 3138 ft 176 kts 126°
2026-04-29 15:22 51.87461 -0.60778 3021 ft 179 kts 130°
2026-04-29 15:22 51.86535 -0.59425 3009 ft 179 kts 131°
2026-04-29 15:22 51.85606 -0.58077 2991 ft 177 kts 130°
2026-04-29 15:22 51.84907 -0.56553 2805 ft 159 kts 111°
2026-04-29 15:23 51.84599 -0.54984 2643 ft 137 kts 95°
2026-04-29 15:23 51.84609 -0.53499 2480 ft 130 kts 77°
2026-04-29 15:23 51.84818 -0.52094 2290 ft 127 kts 75°
2026-04-29 15:23 51.85053 -0.50717 2118 ft 126 kts 75°
2026-04-29 15:24 51.85291 -0.49353 2034 ft 127 kts 75°
2026-04-29 15:24 51.85526 -0.48000 1803 ft 126 kts 75°
2026-04-29 15:24 51.85764 -0.46630 1490 ft 127 kts 75°
2026-04-29 15:24 51.85999 -0.45276 1416 ft 125 kts 75°
2026-04-29 15:25 51.86232 -0.43936 1327 ft 120 kts 76°
2026-04-29 15:25 51.86460 -0.42621 1107 ft 123 kts 76°
2026-04-29 15:25 51.86693 -0.41251 994 ft 128 kts 75°
2026-04-29 15:25 51.86929 -0.39844 745 ft 132 kts 76°
2026-04-29 15:26 51.87193 -0.38413 596 ft 135 kts 77°
2026-04-29 15:26 51.87442 -0.37000 534 ft 119 kts 84°
2026-04-29 15:26 51.87592 -0.36071 516 ft 29 kts 74°
2026-04-29 15:26 51.87645 -0.35922 516 ft 12 kts 12°
2026-04-29 15:27 51.87708 -0.35936 516 ft 8 kts 345°
2026-04-29 15:27 51.87763 -0.35975 516 ft 9 kts 327°
2026-04-29 15:27 51.87783 -0.36053 518 ft 7 kts 276°
2026-04-29 15:27 51.87775 -0.36127 518 ft 7 kts 255°
2026-04-29 15:28 51.87759 -0.36226 518 ft 12 kts 255°
2026-04-29 15:28 51.87742 -0.36324 518 ft 15 kts 253°
2026-04-29 15:28 51.87699 -0.36557 520 ft 13 kts 255°
2026-04-29 15:28 51.87675 -0.36708 522 ft 10 kts 255°
2026-04-29 15:29 51.87655 -0.36825 525 ft 12 kts 254°
2026-04-29 15:29 51.87803 -0.37018 515 ft 18 kts 342°
2026-04-29 15:30 51.88038 -0.37150 508 ft 11 kts 324°
2026-04-29 15:30 51.88031 -0.37266 508 ft 13 kts 250°
2026-04-29 15:30 51.88018 -0.37332 508 ft 4 kts 252°
2026-04-29 15:30 51.87988 -0.37340 508 ft 6 kts 168°
2026-04-29 15:31 51.87967 -0.37329 508 ft 1 kts 162°
2026-04-29 15:31 51.87960 -0.37325 508 ft 0 kts 162°
2026-04-29 15:31 51.87957 -0.37324 508 ft 0 kts 162°